Zurück zum Katalog

STARLINK-5683

AktivKommunikationVLEO
NORAD 55452·PAYLOAD·🇺🇸 United States

Gestartet Feb 2, 2023 von Cape Canaveral Space Force Station

Loading…

Nächste Überflüge (nächste 24 Stunden)

TLE

AktuellSource: CelesTrak SupGP

Epoche: Sep 15, 2026, 02:33 UTC

1 55452C 23015D   26258.10673611  .00027706  00000+0  10034-2 0  2589
2 55452  43.0039 339.4554 0002159 273.9015 153.8292 15.27566391    15

Verfolge STARLINK-5683 in Echtzeit mit AllMySat

Download on the App Store